Content
SEND FEEDBACK

Daily
Averages
Monthly
Summary
United States of America

MUSKEGON, MICHIGAN


Home > North America > United States > Michigan
Elevation: 628 feet     Latitude: 43 10N     Longitude: 086 14W

WEATHER
 
SELECT A DAY
Number of Records: 220,237;   Date Range: 1/1/95 - 9/16/14
 
SHARE

PRINT THIS DATA

[ ← Previous Day ]
WEATHER ALMANAC - FEBRUARY 18, 2013
[ Next Day → ]
[ °C ]   °F
Weather ElementAverageHighLow
Temperature36.6 °F45 °F (3:55 pm)23 °F (1:55 am)
Dewpoint25.6 °F41 °F (8:55 pm)10 °F (1:55 am)
Humidity65.4 %92 % (7:55 pm)52 % (11:55 am)
Barometer29.72 in30.10 in (1:55 am)29.37 in (11:52 pm)
Wind Speed13.5 mph20.7 mph (10:55 pm)
Wind Gust31.1 mph (10:55 pm)
Weather ElementAverage
Visibility9.1 mi
Wind DirectionSSE (146.5 °)

Weather ElementTotal
Precipitation0.36 in
Heating Degree Days31 (Base 65)
Averaged from 26 records on February 18, 2013
WEATHER CONDITIONS BREAKOUT
WIND DIRECTION BREAKOUT
WEATHER BY HOUR - FEBRUARY 18, 2013
[ °C ]   °F
Local TimeTemperatureDewpointHumidityBarometerVisibilityWind DirectionWind SpeedGust SpeedPrecipitationEventsConditions
1:55 AM23.0 °F10.0 °F58 %30.10 in10.0 miSSE (150°)10.4 mphClear
2:55 AM23.0 °F10.9 °F60 %30.07 in10.0 miSE (140°)12.7 mphOvercast
3:55 AM25.0 °F10.0 °F53 %30.04 in10.0 miSE (140°)13.8 mphOvercast
4:55 AM25.0 °F10.9 °F55 %29.99 in10.0 miSE (140°)16.1 mphMostly Cloudy
5:55 AM24.1 °F12.0 °F60 %29.95 in10.0 miSE (130°)13.8 mphClear
6:55 AM26.1 °F12.0 °F55 %29.91 in10.0 miSE (140°)15.0 mphClear
7:55 AM27.0 °F12.9 °F56 %29.89 in10.0 miSE (140°)17.3 mphClear
8:55 AM28.0 °F14.0 °F56 %29.88 in10.0 miSE (140°)13.8 mphClear
9:55 AM30.0 °F15.1 °F54 %29.86 in10.0 miSE (140°)12.7 mphClear
10:55 AM33.1 °F18.0 °F54 %29.83 in10.0 miSSE (150°)11.5 mphClear
11:55 AM36.0 °F19.9 °F52 %29.80 in10.0 miSSE (150°)12.7 mph20.7 mphClear
12:55 PM39.9 °F24.1 °F53 %29.75 in10.0 miSE (140°)11.5 mphClear
1:55 PM41.0 °F26.1 °F55 %29.71 in10.0 miSE (130°)13.8 mphClear
2:55 PM42.1 °F28.0 °F58 %29.68 in10.0 miSE (130°)10.4 mphClear
3:55 PM45.0 °F28.9 °F53 %29.66 in10.0 miSE (140°)10.4 mph20.7 mphMostly Cloudy
4:55 PM44.1 °F30.9 °F60 %29.64 in10.0 miSE (140°)9.2 mphOvercast
5:20 PM44.6 °F32.0 °F61 %29.61 in10.0 miSSE (150°)8.1 mphOvercast
5:55 PM45.0 °F33.1 °F63 %29.61 in10.0 miSE (140°)10.4 mph0.00 inRainLight Rain
6:55 PM43.0 °F37.0 °F80 %29.60 in5.0 miSSE (150°)9.2 mph0.00 inRainLight Rain
7:55 PM42.1 °F39.9 °F92 %29.56 in3.0 miSSE (150°)11.5 mph0.10 inRainLight Rain
8:55 PM45.0 °F41.0 °F86 %29.51 in10.0 miSouth (170°)17.3 mph28.8 mph0.02 inRainLight Rain
9:20 PM44.6 °F41.0 °F87 %29.48 in8.0 miSSE (160°)16.1 mph23.0 mph0.01 inRainLight Rain
9:55 PM45.0 °F39.9 °F82 %29.48 in10.0 miSouth (170°)18.4 mph25.3 mph0.03 inRainLight Rain
10:55 PM44.1 °F39.9 °F85 %29.44 in7.0 miSSE (160°)20.7 mph31.1 mph0.08 inRainLight Rain
11:52 PM42.8 °F39.2 °F87 %29.37 in6.0 miSSE (160°)15.0 mph26.5 mph0.06 inRainLight Rain
11:55 PM43.0 °F39.0 °F86 %29.38 in7.0 miSSE (160°)19.6 mph25.3 mph0.06 inRainLight Rain
Hourly data recorded from KMKG, located miles away from Muskegon, Michigan







STORIES FROM OUR PARTNERS